Flag for Sierra Leone Weather past 2 weeks in Kenema, Sierra Leone

Now
79 °F

Light rain. Partly sunny.


Feels Like: 83 °F
Forecast: N/A
Wind: 5 mph from West

Location: Roberts Field

Current Time: Jul 4, 2015 at 3:44:57 PM

Latest Report: Jul 4, 2015 at 3:00 PM


Visibility: 5 mi

Pressure: 29.95 "Hg

Humidity: 94%

Dew point: 77 °F

Location of KenemaLocation

Historic Weather in Kenema — Graph

°F

Kenema temperature yesterday

Maximum temperature yesterday: 82 °F (at 12:30 PM)
Minimum temperature yesterday: 77 °F (at 12:00 AM)
Average temperature yesterday: 80 °F

Past Weeks' High & Low Weather Summary

 TemperatureHumidityPressure
High86 °F (Jun 26, 12:30 PM)100% (Jun 23, 4:30 AM)30.12 "Hg (Jun 23, 4:30 AM)
Low73 °F (Jun 24, 4:30 AM)74% (Jun 22, 2:30 PM)29.89 "Hg (Jul 3, 1:30 PM)
Average78 °F90%30.00 "Hg
* Reported Jun 19 2:00 PM — Jul 4 2:30 PM, Kenema, Weather by CustomWeather, © 2015

Note: Actual official high and low records may vary slightly from our data, if they occured in-between our weather recording intervals... More about our weather records

Advertising

Kenema weather history for previous 24 hours

 ConditionsComfort  
Time TempWeatherWind HumidityBarometerVisibility
2:30 PM
Sat, Jul 4
82 °FPartly sunny.9 mph84%29.95 "HgN/A
1:30 PM79 °FLight rain. Partly sunny.6 mph94%29.95 "Hg5 mi
11:30 AM81 °FDrizzle. Partly sunny.9 mph84%29.98 "Hg4 mi
11:00 AM81 °FPartly sunny.12 mph84%29.98 "HgN/A
10:30 AM81 °FPartly sunny.7 mph84%29.98 "HgN/A
10:00 AM79 °FDrizzle. Partly sunny.9 mph94%29.98 "HgN/A
9:30 AM79 °FDrizzle. Partly sunny.10 mph94%29.98 "Hg6 mi
9:00 AM79 °FDrizzle. Partly sunny.10 mph94%29.98 "Hg6 mi
8:30 AM79 °FPartly sunny.8 mph94%29.98 "HgN/A
8:00 AM77 °FRain. Partly sunny.5 mph100%29.95 "HgN/A
7:30 AM77 °FLight rain. Passing clouds.No wind100%29.95 "Hg5 mi
7:00 AM77 °FRain. Passing clouds.No wind100%29.95 "HgN/A
6:30 AM77 °FLight rain. Passing clouds.No wind94%29.95 "Hg5 mi
6:00 AM77 °FLight rain. Passing clouds.No wind94%29.95 "Hg4 mi
5:00 AM77 °FLight rain. Passing clouds.No wind94%29.92 "Hg4 mi
4:00 AM77 °FPassing clouds.5 mph94%29.92 "HgN/A
1:30 AM77 °FLight rain. Passing clouds.No wind94%29.95 "Hg4 mi
12:30 AM77 °FPassing clouds.No wind94%29.95 "HgN/A
10:30 PM
Fri, Jul 3
77 °FPassing clouds.No wind94%29.98 "HgN/A
10:00 PM77 °FPassing clouds.5 mph94%29.98 "HgN/A
9:30 PM79 °FPassing clouds.No wind89%29.95 "HgN/A
9:00 PM79 °FPassing clouds.No wind89%29.95 "HgN/A
8:30 PM79 °FPassing clouds.No wind89%29.95 "HgN/A
8:00 PM79 °FPassing clouds.No wind89%29.95 "HgN/A
7:30 PM79 °FBroken clouds.No wind89%29.92 "HgN/A
7:00 PM79 °FPartly sunny.5 mph94%29.92 "HgN/A
6:30 PM81 °FBroken clouds.5 mph84%29.92 "HgN/A
6:00 PM81 °FBroken clouds.7 mph84%29.92 "HgN/A
5:30 PM82 °FBroken clouds.9 mph79%29.89 "HgN/A
5:00 PM82 °FPartly sunny.7 mph84%29.89 "HgN/A
4:30 PM82 °FScattered clouds.9 mph84%29.89 "HgN/A
4:00 PM82 °FScattered clouds.12 mph84%29.89 "HgN/A
Weather by CustomWeather, © 2015

See weather overviewHow to use our weather pages